Location: Unspecified
(0.0000°N, 0.0000°E)
Time: 15:20:38
(UTC+00:00)

AAUSAT CUBESAT 2 - Visible Passes

Search period start: 31 May 2023 00:00
Search period end: 10 June 2023 00:00
Orbit: 549 x 563 km, 97.6° (Epoch: 31 May)

Date Brightness Start Highest point End Pass type
(mag) Time Alt. Az. Time Alt. Az. Time Alt. Az.
31 May ? 03:31:22 10° NE 03:33:21 21° ENE 03:33:21 21° ENE visible
31 May ? 05:08:08 10° WNW 05:09:11 11° WNW 05:09:11 11° WNW visible
01 Jun ? 03:28:59 10° NE 03:30:50 19° ENE 03:30:50 19° ENE visible
01 Jun ? 05:05:11 10° NW 05:06:40 12° WNW 05:06:40 12° WNW visible
02 Jun ? 03:26:37 10° NE 03:28:18 18° ENE 03:28:18 18° ENE visible
02 Jun ? 05:02:20 10° NW 05:04:08 13° WNW 05:04:08 13° WNW visible
03 Jun ? 03:24:15 10° NE 03:25:45 16° ENE 03:25:45 16° ENE visible
03 Jun ? 04:59:32 10° NW 05:01:35 14° WNW 05:01:35 14° WNW visible
04 Jun ? 03:21:54 10° ENE 03:23:10 15° ENE 03:23:10 15° ENE visible
04 Jun ? 04:56:46 10° NW 04:59:00 15° WNW 04:59:00 15° WNW visible
05 Jun ? 03:19:32 10° ENE 03:20:35 14° ENE 03:20:35 14° ENE visible
05 Jun ? 04:54:00 10° NW 04:56:25 17° WNW 04:56:25 17° WNW visible
06 Jun ? 03:17:12 10° ENE 03:17:59 12° ENE 03:17:59 12° ENE visible
06 Jun ? 04:51:15 10° NW 04:53:49 18° WNW 04:53:49 18° WNW visible
07 Jun ? 03:14:53 10° ENE 03:15:21 11° ENE 03:15:21 11° ENE visible
07 Jun ? 04:48:31 10° NNW 04:51:11 20° WNW 04:51:11 20° WNW visible
08 Jun ? 03:12:37 10° ENE 03:12:44 10° ENE 03:12:44 10° ENE visible
08 Jun ? 04:45:47 10° NNW 04:48:33 22° WNW 04:48:33 22° WNW visible
09 Jun ? 04:43:02 10° NNW 04:45:54 23° WNW 04:45:54 23° WNW visible
